Flag for Germany Weather past 2 weeks in Zittau, Saxony, Germany

Now
68 °F

Partly sunny.


Feels Like: 68 °F
Forecast: 53 / 67 °F
Wind: 8 mph from Southeast

Location: Liberec

Current Time: Sep 18, 2014 at 2:16:28 PM

Latest Report: Sep 18, 2014 at 1:00 PM


Visibility: 19 mi

Pressure: 29.98 "Hg

Humidity: 48%

Dew point: 47 °F

Location of ZittauLocation

Historic Weather in Zittau — Graph

°F

Zittau temperature yesterday

Maximum temperature yesterday: 73 °F (at 2:00 PM)
Minimum temperature yesterday: 55 °F (at 7:00 AM)
Average temperature yesterday: 64 °F

Past Weeks' High & Low Weather Summary

 TemperatureHumidityPressure
High79 °F (Sep 5, 4:00 PM)100% (Sep 4, 2:00 AM)30.20 "Hg (Sep 4, 2:00 AM)
Low45 °F (Sep 10, 10:00 PM)41% (Sep 16, 1:00 PM)29.86 "Hg (Sep 6, 3:00 PM)
Average61 °F83%30.02 "Hg
* Reported Sep 3 1:00 PM — Sep 18 1:00 PM, Zittau, Weather by CustomWeather, © 2014

Note: Actual official high and low records may vary slightly from our data, if they occured in-between our weather recording intervals... More about our weather records

Advertising

Zittau weather history for previous 24 hours

 ConditionsComfort  
Time TempWeatherWind HumidityBarometerVisibility
1:00 PM
Sep 18
68 °FPartly sunny.8 mph48%29.98 "Hg19 mi
12:00 PM67 °FPartly sunny.6 mph48%29.98 "Hg17 mi
11:00 AM65 °FScattered clouds.6 mph53%29.99 "Hg16 mi
10:00 AM64 °FPassing clouds.7 mph58%29.99 "Hg16 mi
9:00 AM62 °FPassing clouds.7 mph64%29.99 "Hg16 mi
8:00 AM59 °FSunny.5 mph72%30.00 "Hg16 mi
7:00 AM58 °FCool.6 mph79%29.99 "Hg12 mi
6:00 AMN/APassing clouds.N/AN/AN/A3 mi
5:00 AM58 °FCool.6 mph81%30.00 "Hg11 mi
4:00 AM59 °FCool.6 mph82%30.01 "Hg7 mi
3:00 AM59 °FCool.5 mph82%30.01 "Hg12 mi
2:00 AM58 °FCool.2 mph83%30.03 "Hg12 mi
1:00 AM60 °FFog.3 mph81%30.02 "Hg6 mi
12:00 AM60 °FCool.2 mph81%30.02 "Hg12 mi
11:00 PM
Sep 17
60 °FCool.2 mph79%30.03 "Hg12 mi
10:00 PM60 °FClear.3 mph79%30.03 "Hg16 mi
9:00 PM58 °FClear.2 mph79%30.03 "Hg16 mi
8:00 PM60 °FClear.2 mph74%30.02 "Hg17 mi
7:00 PM67 °FPassing clouds.2 mph58%29.99 "Hg19 mi
6:00 PM70 °FMild.3 mph51%29.98 "Hg12 mi
5:00 PM71 °FScattered clouds.5 mph49%29.98 "Hg19 mi
4:00 PM72 °FScattered clouds.5 mph46%29.99 "Hg19 mi
3:00 PM73 °FScattered clouds.3 mph46%29.99 "Hg19 mi
2:00 PM73 °FScattered clouds.3 mph43%30.00 "Hg19 mi
Weather by CustomWeather, © 2014

See weather overviewHow to use our weather pages